Regional Weather Roundup
Issued by NWS

Home | Current Version | Previous Version | Text Only | Print | Product List | Glossary On
Versions: 1 2 3 4 5 6 7 8 9 10 11 12 13 14 15 16 17 18 19 20 21 22 23 24 25 26 27 28 29 30 31 32 33 34 35 36 37 38 39 40 41 42 43 44 45 46 47 48 49 50
000
ASUS43 KLSX 221657
RWRMO

WEATHER SUMMARY FOR MISSOURI
NATIONAL WEATHER SERVICE SPRINGFIELD MO
1200 PM CDT SAT JUL 22 2017

NOTE: "FAIR" INDICATES FEW OR NO CLOUDS BELOW 12,000 FEET WITH NO
       SIGNIFICANT WEATHER AND/OR OBSTRUCTIONS TO VISIBILITY.
       CURRENT SKY AND/OR WEATHER CONDITIONS ARE NOT AVAILABLE FOR
       CHILLICOTHE AND FARMINGTON.

MOZ001>031-035>038-043-044-053-054-221800-
...NORTHERN AND WESTERN MISSOURI...

CITY           SKY/WX    TMP DP  RH WIND       PRES   REMARKS
KANSAS CTY INT MOSUNNY   92  75  57 SW12      29.83S HX 103
ST JOSEPH      SUNNY     91  76  61 SW8       29.80S HX 103
CHILLICOTHE      N/A     91  77  63 VRB5      29.81S HX 104

$$
MOZ066>068-077>081-088>096-101>105-221800-
...SOUTHWEST MISSOURI...

CITY           SKY/WX    TMP DP  RH WIND       PRES   REMARKS
SPRINGFIELD    SUNNY     92  72  51 SW13      29.95F HX  99
JOPLIN         SUNNY     95  74  50 SW16      29.93F HX 105
BRANSON        SUNNY     91  72  52 W6        29.99S HX  98

$$
MOZ032>034-039>042-045>050-055>058-069>072-221800-
...CENTRAL MISSOURI...

CITY           SKY/WX    TMP DP  RH WIND       PRES   REMARKS
COLUMBIA       NOT AVBL
JEFFERSON CITY SUNNY     94  76  55 S15       29.85F HX 106
ROLLA          MOSUNNY   90  75  61 S8        29.93R HX 100
SEDALIA        SUNNY     94  76  55 SW17G23   29.87S HX 106
WARRENSBURG    SUNNY     91  72  52 S16       29.84S HX  98

$$
MOZ051-052-059>065-221800-
...EAST CENTRAL MISSOURI...

CITY           SKY/WX    TMP DP  RH WIND       PRES   REMARKS
ST LOUIS INTL  MOSUNNY   93  71  48 SE14      29.90F HX 100

$$
MOZ072>076-082>087-097>100-106>115-221800-
...SOUTH CENTRAL AND SOUTHEAST MISSOURI...

CITY           SKY/WX    TMP DP  RH WIND       PRES   REMARKS
CAPE GIRARDEAU SUNNY     92  73  53 W3        29.95R HX 100
POPLAR BLUFF   SUNNY     91  78  65 SE7       29.94S HX 106
WEST PLAINS    SUNNY     93  71  48 SW9       29.98F HX 100

$$


USA.gov is the U.S. government's official web portal to all federal, state and local government web resources and services.